FW7631 Weather Reports


time (UTC)temp
C
wind
direction
speed
KPH
gust
KPH
rain 1hr
cm
rain 24hr
cm
rain mn
cm
humidity
%
barometer
mb
20260507000637 11 225 1.6 8.0 0.03 2.03 2.03 96 1010.6
20260506235537 11 225 3.2 9.7 0.05 2.03 2.03 95 1010.6
20260506234516 12 158 4.8 9.7 0.08 2.03 2.03 94 1010.4
20260506233517 12 180 4.8 17.7 0.10 2.01 2.01 96 1010.4
20260506232516 13 0.0 1.6 0.10 2.01 2.01 97 1010.0
20260506231517 13 203 3.2 11.3 0.10 2.01 2.01 98 1009.8
20260506230537 13 0.0 1.6 0.10 2.01 2.01 98 1009.8
20260506225516 13 0.0 1.6 0.08 1.98 1.98 98 1009.6
20260506224516 13 248 1.6 4.8 0.05 1.96 1.96 98 1009.4
20260506223516 13 225 3.2 4.8 0.03 1.91 1.91 98 1009.5
20260506222557 13 248 1.6 4.8 0.03 1.91 1.91 98 1009.4
20260506221516 13 225 3.2 6.4 0.05 1.91 1.91 98 1009.3
20260506220516 13 270 3.2 11.3 0.08 1.91 1.91 98 1009.5
20260506215517 13 248 3.2 6.4 0.10 1.91 1.91 98 1009.4
20260506214517 13 270 3.2 8.0 0.13 1.91 1.91 98 1009.5
20260506213516 13 225 4.8 11.3 0.10 1.88 1.88 98 1009.4
20260506212517 13 180 3.2 6.4 0.13 1.88 1.88 98 1009.3
20260506211516 13 293 1.6 4.8 0.13 1.85 1.85 98 1009.3
20260506210516 13 225 1.6 4.8 0.13 1.83 1.83 98 1009.4
20260506205516 13 225 3.2 9.7 0.13 1.80 1.80 98 1009.3
20260506204516 14 270 3.2 16.1 0.10 1.78 1.78 98 1009.5
20260506203516 14 248 4.8 11.3 0.13 1.78 1.78 98 1009.5
20260506202516 14 248 4.8 11.3 0.13 1.75 1.75 98 1009.5
20260506201516 14 270 6.4 19.3 0.10 1.73 1.73 98 1009.7
20260506200516 14 248 4.8 11.3 0.13 1.70 1.70 98 1009.7
20260506195516 14 225 4.8 11.3 0.18 1.68 1.68 98 1009.7
20260506194516 13 315 4.8 12.9 0.23 1.68 1.68 98 1009.9
20260506193516 14 293 3.2 14.5 0.23 1.65 1.65 98 1009.9
20260506192516 13 225 4.8 12.9 0.25 1.63 1.63 98 1009.9
20260506191536 14 225 4.8 12.9 0.38 1.63 1.63 98 1009.9
20260506190516 14 225 4.8 11.3 0.58 1.57 1.57 98 1010.2
20260506185516 13 225 4.8 11.3 0.66 1.50 1.50 98 1010.0
20260506184516 13 248 4.8 6.4 0.71 1.45 1.45 98 1010.1
20260506183516 13 225 3.2 11.3 0.76 1.42 1.42 98 1010.1
20260506182516 13 248 3.2 6.4 0.79 1.37 1.37 98 1010.5
20260506181516 13 248 1.6 4.8 0.71 1.24 1.24 98 1010.7
20260506180536 13 248 1.6 3.2 0.53 0.99 0.99 98 1010.9
20260506175516 13 270 1.6 4.8 0.46 0.84 0.84 98 1010.8
20260506174536 13 158 1.6 6.4 0.41 0.74 0.74 98 1011.1
20260506173516 13 248 4.8 11.3 0.41 0.66 0.66 98 1011.3
20260506172516 13 248 3.2 8.0 0.36 0.58 0.58 98 1011.6
20260506171516 13 248 3.2 9.7 0.36 0.53 0.53 98 1011.9
20260506170516 13 203 3.2 11.3 0.30 0.46 0.46 97 1012.1
20260506165516 13 248 3.2 8.0 0.25 0.38 0.41 97 1012.2
20260506164536 13 270 1.6 4.8 0.23 0.33 0.33 97 1012.0
20260506163516 13 248 3.2 11.3 0.18 0.25 0.25 97 1012.1
20260506162535 14 248 1.6 6.4 0.18 0.23 0.23 97 1012.2
20260506161516 14 248 1.6 6.4 0.13 0.18 0.18 96 1012.3
20260506160516 14 225 1.6 6.4 0.13 0.15 0.15 96 1012.3
20260506155516 14 248 1.6 4.8 0.10 0.13 0.13 96 1012.4
20260506154516 14 248 1.6 4.8 0.10 0.10 0.10 95 1012.5
20260506153516 15 248 1.6 6.4 0.08 0.08 0.08 94 1012.6
20260506152536 15 135 1.6 6.4 0.05 0.05 0.05 94 1012.8
20260506151516 15 225 3.2 9.7 0.05 0.05 0.05 93 1013.1
20260506150515 15 248 1.6 8.0 0.03 0.03 0.03 92 1013.0
20260506145515 15 225 3.2 14.5 0.03 0.03 0.03 90 1013.2
20260506144516 15 270 3.2 9.7 0.00 0.00 0.00 87 1013.3
20260506143515 15 0.0 6.4 0.00 0.00 0.00 85 1013.3
20260506142516 15 180 1.6 11.3 0.00 0.00 0.00 84 1013.3
20260506141515 15 0.0 0.0 0.00 0.00 0.00 85 1013.2
20260506140515 15 0.0 3.2 0.00 0.00 0.00 85 1013.0
20260506135515 15 180 1.6 6.4 0.00 0.00 0.00 85 1013.1
20260506134515 15 225 1.6 4.8 0.00 0.00 0.00 87 1012.7
20260506133515 14 180 1.6 8.0 0.00 0.00 0.00 88 1012.7
20260506132516 13 0.0 0.0 0.00 0.00 0.00 88 1012.9
20260506131536 13 0.0 0.0 0.00 0.00 0.00 90 1012.9
20260506130535 13 0.0 0.0 0.00 0.00 0.00 89 1013.1
20260506125515 12 0.0 0.0 0.00 0.00 0.00 90 1013.3
20260506124535 12 0.0 0.0 0.00 0.00 0.00 91 1013.4
20260506123555 12 0.0 0.0 0.00 0.00 0.00 92 1013.4
20260506122515 12 0.0 0.0 0.00 0.00 0.00 92 1013.5
20260506121515 12 0.0 0.0 0.00 0.00 0.00 92 1013.5
20260506120535 12 0.0 0.0 0.00 0.00 0.00 93 1013.4
20260506115515 11 0.0 0.0 0.00 0.00 0.00 94 1012.9
20260506114535 11 0.0 0.0 0.00 0.00 0.00 95 1013.2
20260506113515 11 0.0 0.0 0.00 0.00 0.00 96 1013.2
20260506112535 11 0.0 0.0 0.00 0.00 0.00 96 1013.3
20260506111515 10 0.0 0.0 0.00 0.00 0.00 97 1013.4
20260506110515 10 0.0 0.0 0.00 0.00 0.00 97 1013.3
20260506105515 10 0.0 0.0 0.00 0.00 0.00 97 1013.3
20260506104537 10 0.0 0.0 0.00 0.00 0.00 97 1013.3
20260506103557 10 0.0 0.0 0.00 0.00 0.00 97 1013.2
20260506102517 10 0.0 0.0 0.00 0.00 0.00 97 1013.4
20260506101517 10 0.0 0.0 0.00 0.00 0.00 96 1013.7
20260506100517 10 0.0 0.0 0.00 0.00 0.00 96 1013.7
20260506095517 10 0.0 0.0 0.00 0.00 0.00 96 1013.7
20260506094517 10 0.0 0.0 0.00 0.00 0.00 96 1013.6
20260506093517 10 0.0 0.0 0.00 0.00 0.00 96 1013.7
20260506092517 10 0.0 0.0 0.00 0.00 0.00 96 1013.7
20260506091517 10 0.0 0.0 0.00 0.00 0.00 96 1013.9
20260506090517 11 0.0 0.0 0.00 0.00 0.00 95 1014.0
20260506085517 11 0.0 0.0 0.00 0.00 0.00 95 1014.0
20260506084517 11 0.0 0.0 0.00 0.00 0.00 95 1014.0
20260506083516 11 0.0 0.0 0.00 0.00 0.00 95 1014.2
20260506082517 11 0.0 0.0 0.00 0.00 0.00 95 1014.5
20260506081517 11 0.0 0.0 0.00 0.00 0.00 95 1014.2
20260506080517 11 0.0 0.0 0.00 0.00 0.00 95 1014.3
20260506072517 11 0.0 0.0 0.00 0.00 0.00 93 1014.7
20260506071516 11 0.0 0.0 0.00 0.00 0.00 93 1014.4
20260506070517 12 0.0 0.0 0.00 0.00 0.00 92 1014.8
20260506062517 12 0.0 0.0 0.00 0.00 0.00 90 1014.7
20260506061516 12 0.0 0.0 0.00 0.00 0.00 90 1014.5
20260506060536 12 0.0 0.0 0.00 0.00 0.00 90 1014.5
20260506050516 13 0.0 0.0 0.00 0.00 0.00 86 1015.0
20260506044516 14 0.0 0.0 0.00 0.00 0.00 85 1015.2
20260506043536 14 0.0 0.0 0.00 0.00 0.00 84 1015.2
20260506042516 14 0.0 0.0 0.00 0.00 0.00 84 1015.1
20260506041536 15 0.0 0.0 0.00 0.00 0.00 84 1015.2
20260506040517 14 0.0 0.0 0.00 0.00 0.00 84 1015.2
20260506035517 14 0.0 0.0 0.00 0.00 0.00 85 1015.0
20260506034517 14 0.0 0.0 0.00 0.00 0.00 85 1014.8
20260506033537 15 0.0 0.0 0.00 0.00 0.00 85 1015.0
20260506032517 15 0.0 0.0 0.00 0.00 0.00 85 1015.1
20260506031537 15 0.0 0.0 0.00 0.00 0.00 85 1015.0
20260506030537 14 0.0 0.0 0.00 0.00 0.00 85 1015.1
20260506025517 14 0.0 0.0 0.00 0.00 0.00 86 1015.2
20260506024517 14 0.0 0.0 0.00 0.00 0.00 86 1015.1
20260506023517 14 0.0 0.0 0.00 0.00 0.00 86 1014.9
20260506022517 15 0.0 0.0 0.00 0.00 0.00 87 1014.9
20260506021517 14 0.0 0.0 0.00 0.00 0.00 86 1015.0
20260506020517 15 0.0 0.0 0.00 0.00 0.00 89 1015.2
20260506015517 15 0.0 0.0 0.00 0.00 0.00 86 1015.0
20260506014537 15 0.0 0.0 0.00 0.00 0.00 87 1015.2
20260506013516 15 0.0 0.0 0.00 0.00 0.00 85 1014.9
20260506012517 15 0.0 0.0 0.00 0.00 0.00 84 1014.8
20260506011517 15 0.0 0.0 0.00 0.00 0.00 83 1014.4
20260506010516 16 0.0 0.0 0.00 0.00 0.00 80 1014.4
20260506005516 16 0.0 1.6 0.00 0.00 0.00 79 1014.2
20260506004517 16 0.0 0.0 0.00 0.00 0.00 78 1014.1
20260506003517 16 0.0 0.0 0.00 0.00 0.00 77 1013.8
20260506002516 17 0.0 1.6 0.00 0.00 0.00 73 1013.7
20260506001517 17 203 4.8 12.9 0.00 0.00 0.00 69 1013.5